GLOBALSTAR M001 1 25162U 98008A 12142.14306867 -.00000084 00000-0 10000-3 0 1579 2 25162 52.0040 188.6561 0001644 239.9795 120.0919 12.38012317652343 GLOBALSTAR M004 1 25163U 98008B 12141.65812541 -.00000086 00000-0 10000-3 0 2276 2 25163 52.0005 220.2913 0003995 148.9784 211.1319 12.63184267658217 GLOBALSTAR M002 1 25164U 98008C 12141.67329893 -.00000071 00000-0 10000-3 0 1152 2 25164 52.0043 333.1504 0001952 95.1004 265.0036 11.61433680629236 GLOBALSTAR M003 1 25165U 98008D 12141.09877855 -.00000080 00000-0 10000-3 0 2022 2 25165 52.0282 76.3407 0006318 48.1257 312.0134 12.12059091654203 GLOBALSTAR M014 1 25306U 98023A 12141.62525316 -.00000072 00000-0 10000-3 0 1173 2 25306 51.9872 356.5898 0001139 146.3023 213.7870 11.65400879634380 GLOBALSTAR M006 1 25307U 98023B 12141.70027778 -.00000086 00000-0 10000-3 0 9434 2 25307 51.9988 276.7548 0001179 154.4404 205.6526 12.62271605649162 GLOBALSTAR M015 1 25308U 98023C 12141.37292140 -.00000075 00000-0 10000-3 0 9657 2 25308 51.9850 142.7696 0001977 296.7977 63.2646 11.79653331644925 GLOBALSTAR M008 1 25309U 98023D 12142.04549984 -.00000083 00000-0 10000-3 0 9125 2 25309 51.9980 0.2650 0003668 130.4922 229.6244 12.35924926647683 GLOBALSTAR M023 1 25621U 99004A 12142.13436438 -.00000086 00000-0 10000-3 0 9203 2 25621 52.0110 190.0115 0009777 26.7386 333.3990 12.62254834612743 GLOBALSTAR M040 1 25622U 99004B 12140.89579422 -.00000086 00000-0 10000-3 0 5123 2 25622 51.9923 190.9666 0001020 238.6834 121.3934 12.61739292612556 GLOBALSTAR M036 1 25623U 99004C 12140.85767540 -.00000083 00000-0 10000-3 0 8489 2 25623 51.9996 285.8546 0002570 138.9859 221.1191 12.31455422610894 GLOBALSTAR M038 1 25624U 99004D 12142.13717937 -.00000085 00000-0 10000-3 0 8558 2 25624 52.0006 179.3997 0001499 258.4217 101.6476 12.52554071612861 GLOBALSTAR M022 1 25649U 99012A 12140.93672190 -.00000079 00000-0 10000-3 0 7823 2 25649 52.0060 313.4365 0003315 122.0947 238.0217 12.02453225601885 GLOBALSTAR M041 1 25650U 99012B 12142.11945329 -.00000083 00000-0 10000-3 0 8538 2 25650 52.0049 82.7589 0001225 338.7092 21.3716 12.33191998606188 GLOBALSTAR M046 1 25651U 99012C 12141.30065728 -.00000081 00000-0 10000-3 0 8544 2 25651 52.0029 82.6590 0000796 348.3316 11.7513 12.19542394606065 GLOBALSTAR M037 1 25652U 99012D 12141.99872727 -.00000086 00000-0 10000-3 0 8641 2 25652 52.0027 323.0242 0002834 83.8732 276.2459 12.62209934608278 GLOBALSTAR M045 1 25676U 99019A 12141.66862870 -.00000086 00000-0 10000-3 0 9906 2 25676 51.9974 321.7337 0000779 89.2058 270.8897 12.62270052605823 GLOBALSTAR M019 1 25677U 99019B 12141.35210763 -.00000083 00000-0 10000-3 0 8480 2 25677 51.9909 109.2127 0001451 16.1891 343.9008 12.35927871603899 GLOBALSTAR M044 1 25678U 99019C 12142.13715531 -.00000093 00000-0 00000+0 0 8331 2 25678 51.9992 136.2279 0001586 298.6232 61.4461 12.26541786602087 GLOBALSTAR M042 1 25679U 99019D 12141.62291092 -.00000082 00000-0 10000-3 0 9273 2 25679 52.0009 211.0887 0002548 203.0468 157.0267 12.22054894601479 GLOBALSTAR M025 1 25770U 99031A 12142.09673872 -.00000086 00000-0 10000-3 0 8263 2 25770 51.9988 5.5755 0001172 86.6442 273.4541 12.62260423597152 GLOBALSTAR M049 1 25771U 99031B 12140.92092666 -.00000062 00000-0 10000-3 0 6352 2 25771 51.9888 218.1546 0000970 74.5059 285.5850 11.12073122586042 GLOBALSTAR M047 1 25772U 99031C 12141.10712364 -.00000086 00000-0 10000-3 0 8996 2 25772 51.9984 8.1591 0001142 90.7435 269.3565 12.62260171597039 GLOBALSTAR M052 1 25773U 99031D 12141.16641432 -.00000086 00000-0 10000-3 0 1500 2 25773 51.9948 6.5012 0001815 77.9681 282.1392 12.62271401597047 GLOBALSTAR M035 1 25851U 99037A 12140.82387385 -.00000061 00000-0 10000-3 0 354 2 25851 51.9980 266.1803 0014905 163.1613 196.9678 11.04488606568509 GLOBALSTAR M032 1 25852U 99037B 12141.29776385 -.00000086 00000-0 10000-3 0 7993 2 25852 52.0026 53.6693 0001405 34.1897 325.9061 12.62264859593292 GLOBALSTAR M051 1 25853U 99037C 12142.12491516 -.00000068 00000-0 10000-3 0 7975 2 25853 51.9824 39.3987 0002642 89.8472 270.3104 11.42131564586784 GLOBALSTAR M030 1 25854U 99037D 12141.73300846 -.00000086 00000-0 10000-3 0 8091 2 25854 52.0021 52.5281 0000751 54.2558 305.8377 12.62270902593349 GLOBALSTAR M048 1 25872U 99041A 12140.97181225 -.00000066 00000-0 10000-3 0 6769 2 25872 51.9395 152.1726 0000782 284.6399 75.4326 11.33714175583118 GLOBALSTAR M026 1 25873U 99041B 12142.14146185 -.00000086 00000-0 10000-3 0 8378 2 25873 52.0047 97.8678 0001103 8.6919 351.3966 12.62265915591511 GLOBALSTAR M043 1 25874U 99041C 12142.14257539 -.00000065 00000-0 10000-3 0 6550 2 25874 51.9403 67.2505 0012700 84.1845 276.0404 11.25624192585177 GLOBALSTAR M028 1 25875U 99041D 12141.40932424 -.00000086 00000-0 10000-3 0 8175 2 25875 52.0032 99.3347 0000836 9.2032 350.8848 12.62269134591422 GLOBALSTAR M024 1 25883U 99043A 12140.90237010 -.00000062 00000-0 10000-3 0 7093 2 25883 51.9963 357.0468 0001125 157.6315 202.4528 11.10115606584441 GLOBALSTAR M027 1 25884U 99043B 12141.51996427 -.00000086 00000-0 10000-3 0 8059 2 25884 52.0061 145.5036 0000408 328.1440 31.9399 12.62265000588550 GLOBALSTAR M054 1 25885U 99043C 12142.09544244 -.00000067 00000-0 10000-3 0 7722 2 25885 52.0128 145.3517 0005937 153.1460 206.9660 11.39152807575180 GLOBALSTAR M053 1 25886U 99043D 12140.63980459 -.00000065 00000-0 10000-3 0 5257 2 25886 52.0035 191.2103 0002941 236.1191 123.9334 11.27579809580740 GLOBALSTAR M058 1 25907U 99049A 12141.94685040 -.00000082 00000-0 10000-3 0 7824 2 25907 51.9977 297.4372 0002483 121.1575 238.9532 12.24266078582023 GLOBALSTAR M050 1 25908U 99049B 12140.87805676 -.00000079 00000-0 10000-3 0 7236 2 25908 52.0008 266.0211 0008485 223.7985 136.2171 12.07328932575971 GLOBALSTAR M033 1 25909U 99049C 12141.38206815 -.00000086 00000-0 10000-3 0 8121 2 25909 51.9964 143.0087 0000769 337.7523 22.3307 12.62276595584779 GLOBALSTAR M055 1 25910U 99049D 12141.09194886 -.00000082 00000-0 10000-3 0 7951 2 25910 52.0044 350.0162 0006028 287.1725 72.8469 12.29273548581080 GLOBALSTAR M057 1 25943U 99058A 12140.88597783 -.00000085 00000-0 10000-3 0 6644 2 25943 51.9996 318.7740 0002087 72.5657 287.5348 12.48716461579977 GLOBALSTAR M059 1 25944U 99058B 12141.42315975 -.00000086 00000-0 10000-3 0 7964 2 25944 52.0054 278.9588 0000986 146.6359 213.4570 12.62273089580764 GLOBALSTAR M056 1 25945U 99058C 12141.72318770 -.00000086 00000-0 10000-3 0 1340 2 25945 51.9988 231.5656 0002436 193.1723 166.9077 12.62262636581530 GLOBALSTAR M031 1 25946U 99058D 12141.70338093 -.00000086 00000-0 10000-3 0 8245 2 25946 51.9982 231.9318 0001895 188.9099 171.1737 12.62261642581559 GLOBALSTAR M039 1 25961U 99062A 12141.71339811 -.00000086 00000-0 10000-3 0 878 2 25961 51.9956 50.8096 0001681 46.4360 313.6646 12.62263416577176 GLOBALSTAR M034 1 25962U 99062B 12140.88549958 -.00000081 00000-0 10000-3 0 4005 2 25962 51.9926 288.7944 0002268 156.3769 203.7191 12.15669181572844 GLOBALSTAR M029 1 25963U 99062C 12141.63196521 -.00000086 00000-0 10000-3 0 1185 2 25963 51.9935 186.1221 0001057 181.8380 178.2481 12.62297720586875 GLOBALSTAR M061 1 25964U 99062D 12141.40912686 -.00000074 00000-0 10000-3 0 7902 2 25964 51.9818 305.3304 0005007 355.5676 4.5109 11.76698485559246 GLOBALSTAR M063 1 26081U 00008A 12141.74283251 -.00000086 00000-0 10000-3 0 8703 2 26081 51.9990 231.9442 0001687 182.2210 177.8648 12.62259935574927 GLOBALSTAR M062 1 26082U 00008B 12142.11379535 -.00000084 00000-0 10000-3 0 7490 2 26082 52.0047 92.6322 0000247 330.1062 29.9778 12.42961188565156 GLOBALSTAR M060 1 26083U 00008C 12141.37179231 -.00000081 00000-0 10000-3 0 8374 2 26083 52.0008 102.0151 0003057 101.8235 258.2950 12.17490235570772 GLOBALSTAR M064 1 26084U 00008D 12141.68601439 -.00000086 00000-0 10000-3 0 792 2 26084 52.0066 233.9955 0001657 151.9733 208.1249 12.62265136592876 GLOBALSTAR M065 1 31571U 07020A 12141.12896362 -.00000074 00000-0 16656-3 0 5166 2 31571 51.9930 8.4021 0002655 69.9574 290.1581 12.62268345230582 GLOBALSTAR M069 1 31573U 07020C 12140.91862003 -.00000086 00000-0 10000-3 0 7655 2 31573 51.9971 324.4073 0003156 101.0468 259.0763 12.62271215231299 GLOBALSTAR M072 1 31574U 07020D 12142.15101458 -.00000083 00000-0 11770-3 0 5160 2 31574 52.0098 52.4507 0001969 64.8459 295.2593 12.62273623229956 GLOBALSTAR M071 1 31576U 07020F 12140.89434718 -.00000086 00000-0 10000-3 0 7956 2 31576 52.0089 325.8214 0001914 103.3986 256.7089 12.62435737231281 GLOBALSTAR M067 1 32263U 07048A 12141.37647986 -.00000104 00000-0 00000+0 0 4882 2 32263 51.9752 185.8901 0001496 207.9021 152.1766 12.62263250213036 GLOBALSTAR M070 1 32264U 07048B 12141.42080969 -.00000086 00000-0 10000-3 0 4324 2 32264 51.9778 276.3267 0002525 142.2570 217.8481 12.62275992211521 GLOBALSTAR M066 1 32265U 07048C 12142.13596860 -.00000104 00000-0 00000+0 0 4861 2 32265 51.9662 138.1631 0000846 273.6258 86.4514 12.62264835213848 GLOBALSTAR M068 1 32266U 07048D 12141.30778567 -.00000086 00000-0 10000-3 0 4927 2 32266 51.9880 97.6193 0001291 25.7220 334.3725 12.62625585214509 GLOBALSTAR M079 1 37188U 10054A 12141.40122572 -.00000086 00000-0 10000-3 0 4959 2 37188 52.0048 278.0417 0001516 145.7731 214.3238 12.62270878 74016 GLOBALSTAR M074 1 37189U 10054B 12141.67818332 -.00000102 00000-0 85320-5 0 4931 2 37189 52.0025 277.3527 0001533 134.6713 225.4291 12.62272032 74041 GLOBALSTAR M076 1 37190U 10054C 12141.69893501 -.00000086 00000-0 10000-3 0 5029 2 37190 52.0042 276.9835 0002154 125.6141 234.4927 12.62268992 74051 GLOBALSTAR M077 1 37191U 10054D 12140.75537737 -.00000086 00000-0 10000-3 0 3200 2 37191 52.0085 235.4703 0000794 146.5126 213.5788 12.62260817 74686 GLOBALSTAR M075 1 37192U 10054E 12141.49256395 -.00000086 00000-0 10000-3 0 5056 2 37192 51.9972 322.6392 0001027 125.1633 234.9329 12.62273090 73267 GLOBALSTAR M073 1 37193U 10054F 12142.20050546 -.00000102 00000-0 87043-5 0 4980 2 37193 52.0077 230.6514 0001198 163.1884 196.9025 12.62260442 74863 GLOBALSTAR M083 1 37739U 11033A 12140.69605045 -.00000047 00000-0 10000-3 0 2416 2 37739 51.9963 241.4696 0025872 301.7418 58.0978 13.74252815 43141 GLOBALSTAR M088 1 37740U 11033B 12141.45055616 -.00000086 00000-0 10000-3 0 2712 2 37740 51.9719 97.5824 0000569 27.2454 332.8441 12.62268940 39573 GLOBALSTAR M091 1 37741U 11033C 12141.71572916 -.00000104 00000-0 00000+0 0 2760 2 37741 52.0014 51.8502 0000842 98.2025 261.8937 12.62260883 40364 GLOBALSTAR M085 1 37742U 11033D 12141.78241396 -.00000086 00000-0 10000-3 0 2802 2 37742 51.9891 6.9117 0001044 120.2127 239.8834 12.62268383 41111 GLOBALSTAR M081 1 37743U 11033E 12142.11889776 -.00000086 00000-0 10000-3 0 2777 2 37743 51.9985 5.7011 0001314 62.0563 298.0432 12.62267310 41191 GLOBALSTAR M089 1 37744U 11033F 12141.37383731 -.00000086 00000-0 10000-3 0 2720 2 37744 51.9955 323.1146 0001731 95.1467 264.9597 12.62269339 41814 GLOBALSTAR M084 1 38040U 11080A 12141.46364298 -.00000085 00000-0 10000-3 0 1345 2 38040 52.0050 213.9162 0001869 261.6831 98.3841 12.99347630 19371 GLOBALSTAR M080 1 38041U 11080B 12142.10529842 -.00000083 00000-0 10000-3 0 1434 2 38041 52.0041 193.3354 0013286 69.4599 290.7712 13.16484424 19768 GLOBALSTAR M082 1 38042U 11080C 12141.30749435 -.00000078 00000-0 55072-4 0 1352 2 38042 52.0042 174.5443 0006547 249.7762 110.2466 13.91927789 20007 GLOBALSTAR M092 1 38043U 11080D 12141.42851457 -.00000086 00000-0 10000-3 0 1433 2 38043 52.0101 232.6844 0000800 154.3924 205.6986 12.62265361 19048 GLOBALSTAR M090 1 38044U 11080E 12142.07265404 -.00000089 00000-0 45958-4 0 1329 2 38044 52.0044 171.3992 0007115 257.6995 102.3140 13.92173638 20102 GLOBALSTAR M086 1 38045U 11080F 12141.11034883 -.00000002 00000-0 11481-3 0 1338 2 38045 52.0054 175.4609 0004904 258.6573 101.3797 13.91759168 19977